Zurück zum Katalog

CZ-4 DEB

AktivSSO
NORAD 26158·DEBRIS·🇨🇳 China

Gestartet Oct 14, 1999 von Taiyuan Satellite Launch Center

Loading…

Nächste Überflüge (nächste 24 Stunden)

TLE

AktuellSource: Space-Track

Epoche: Sep 14, 2026, 23:11 UTC

1 26158U 99057AU  26257.96604877  .00001036  00000-0  35516-3 0  9994
2 26158  98.9509 329.5523 0177003  99.2787  78.8862 14.29953083366573

Verfolge CZ-4 DEB in Echtzeit mit AllMySat

Download on the App Store